Terminal Aerodrome Forecast
Issued by NWS Boise, ID

Home | Current Version | Previous Version | Text Only | Print | Product List | Glossary On
Versions: 1 2 3 4 5 6 7 8 9 10 11 12 13 14 15 16 17 18 19 20 21 22 23 24 25 26 27 28 29 30 31 32 33 34 35 36 37 38 39 40 41 42 43 44 45 46 47 48 49 50
000
FTUS45 KBOI 111120
TAFBOI
TAF
KBOI 111120Z 1112/1212 00000KT 1/4SM FG VV002
      TEMPO 1118/1119 2SM BR SCT002 OVC050
     FM111900 14006KT 2SM BR SCT004 BKN050
     FM112100 14007KT P6SM OVC050=

USA.gov is the U.S. government's official web portal to all federal, state and local government web resources and services.